Location: Brod nad Lesy
(49.3095°N, 12.8416°E)
Time: 17:08:08
(UTC+00:00)

Daily predictions for brighter satellites

Satellite Brightness Start Highest point End
(mag) Time Altitude Azimuth Time Altitude Azimuth Time Altitude Azimuth
Cosmos 1602 Rocket 4.1 18:14:33 10° NNW 18:18:59 67° W 18:23:19 10° S
CZ-2C R/B 3.9 18:16:09 10° NE 18:19:40 18° E 18:23:12 10° SE
Meteor 2-10 4.3 18:14:27 10° S 18:19:46 55° E 18:25:18 10° NNE
IRIDIUM 114 4.4 18:15:37 10° N 18:20:50 64° E 18:26:00 10° SSE
Cosmos 2058 Rocket 4.4 18:18:34 10° SE 18:21:56 21° E 18:25:20 10° NE
STARLINK-1200 4.3 18:18:29 10° WNW 18:22:32 50° N 18:26:35 10° E
ARGOS 3.2 18:22:01 10° SSE 18:27:21 66° ENE 18:32:42 10° N
STARLINK-1192 4.3 18:23:29 10° WNW 18:27:33 50° N 18:31:36 10° E
SL-16 R/B 4.0 18:24:26 10° WSW 18:29:39 37° NW 18:34:53 10° NNE
Cosmos 1726 Rocket 4.2 18:25:51 10° SSE 18:29:53 36° E 18:33:57 10° NNE
IRIDIUM 103 4.3 18:24:47 10° N 18:30:02 76° E 18:35:15 10° S
FREGAT/IRIS 2.3 18:27:58 10° SSE 18:30:39 69° ENE 18:33:23 10° N
STARLINK-1244 4.3 18:28:29 10° WNW 18:32:32 50° N 18:36:35 10° E
Resurs 01 Rocket 2.8 18:31:16 10° ESE 18:34:55 26° ENE 18:38:35 10° N
Cosmos 1825 Rocket 3.5 18:30:58 10° N 18:35:24 75° E 18:39:45 10° SSE
ERBS 4.0 18:33:07 10° NW 18:36:02 26° NNE 18:38:56 10° ENE
ATLAS CENTAUR R/B 3.9 18:35:21 10° N 18:36:13 11° NNE 18:37:05 10° NNE
Nadezhda 1 Rocket 4.3 18:30:29 10° SSE 18:36:33 48° E 18:42:35 10° NNE
Cosmos 2154 Rocket 4.2 18:30:34 10° N 18:36:49 54° ENE 18:42:59 10° SSE
STARLINK-1138 4.3 18:33:29 10° WNW 18:37:33 51° N 18:41:36 10° E
APEX 4.4 18:30:50 10° NNW 18:37:33 69° NE 18:43:02 10° SE
USA 186 1.8 18:35:47 10° SSE 18:39:06 89° NE 18:42:16 10° NNW
Cosmos 921 Rocket 3.7 18:37:35 10° N 18:41:27 34° ENE 18:44:56 12° SE
STARLINK-1143 4.2 18:38:27 10° WNW 18:42:32 52° N 18:46:35 10° E
Cosmos 407 Rocket 3.8 18:40:16 10° S 18:45:04 41° ESE 18:49:52 10° NE
STARLINK-1233 3.2 18:42:06 10° WNW 18:45:13 58° NNE 18:47:47 14° E
STARLINK-1234 3.0 18:42:15 10° WNW 18:45:20 68° NNE 18:47:45 15° ESE
STARLINK-1209 2.9 18:42:38 10° WNW 18:45:38 70° NNE 18:47:58 15° ESE
STARLINK-1212 3.2 18:42:34 10° WNW 18:45:40 58° NNE 18:48:12 14° E
STARLINK-1105 3.2 18:43:01 10° WNW 18:46:08 59° NNE 18:48:40 14° E
STARLINK-1206 3.2 18:43:29 10° WNW 18:46:36 59° NNE 18:49:04 15° E
STARLINK-1247 3.2 18:43:56 10° WNW 18:47:02 59° NNE 18:49:30 15° E
STARLINK-1227 3.2 18:44:21 10° WNW 18:47:28 59° NNE 18:49:56 15° E
STARLINK-1241 4.2 18:43:29 10° WNW 18:47:34 53° N 18:51:25 11° E
STARLINK-1218 3.2 18:44:51 10° WNW 18:47:57 59° NNE 18:50:22 15° E
STARLINK-1226 3.2 18:45:17 10° WNW 18:48:24 60° NNE 18:50:49 15° E
Cosmos 2228 3.0 18:44:18 10° S 18:48:33 63° E 18:52:52 10° NNE
STARLINK-1254 3.2 18:45:43 10° WNW 18:48:50 60° NNE 18:51:15 15° E
Cosmos 1758 Rocket 3.9 18:44:50 10° NNW 18:49:09 68° W 18:53:26 10° S
STARLINK-1215 3.2 18:46:12 10° WNW 18:49:17 60° NNE 18:51:40 16° E
STARLINK-1231 3.1 18:46:38 10° WNW 18:49:45 61° NNE 18:52:06 16° E
SPOT 3 Rocket 3.6 18:45:15 10° SSE 18:50:23 63° ENE 18:55:33 10° N
STARLINK-1232 3.1 18:47:34 10° WNW 18:50:40 61° NNE 18:52:59 16° E
STARLINK-1217 3.1 18:48:00 10° WNW 18:51:06 61° NNE 18:53:24 16° E
STARLINK-1208 3.1 18:48:24 10° WNW 18:51:32 62° NNE 18:53:51 17° E
Cosmos 1461 3.1 18:47:07 10° NW 18:51:38 70° NE 18:55:35 14° SE
STARLINK-1229 3.1 18:48:54 10° WNW 18:52:00 62° NNE 18:54:16 17° E
Cosmos 1603 4.1 18:46:41 10° SW 18:52:17 70° WNW 18:57:54 10° NNE
STARLINK-1271 3.1 18:49:20 10° WNW 18:52:27 62° NNE 18:54:42 17° E
STARLINK-1239 4.2 18:48:26 10° WNW 18:52:31 54° N 18:56:09 13° E
STARLINK-1270 3.1 18:49:48 10° WNW 18:52:55 63° NNE 18:55:08 17° E
STARLINK-1154 3.1 18:50:15 10° WNW 18:53:21 63° NNE 18:55:34 17° E
Aureole 1 Rocket 4.2 18:46:16 10° S 18:53:33 57° ESE 18:59:18 10° NNE
STARLINK-1197 3.1 18:51:09 10° WNW 18:54:16 64° NNE 18:56:26 18° E
STARLINK-1189 3.1 18:51:36 10° WNW 18:54:43 64° NNE 18:56:52 18° E
STARLINK-1198 3.1 18:52:03 10° WNW 18:55:10 64° NNE 18:57:18 18° E
STARLINK-1188 3.1 18:52:30 10° WNW 18:55:37 65° NNE 18:57:44 18° E
STARLINK-1235 2.9 18:53:08 10° WNW 18:56:17 75° NNE 18:58:22 19° ESE
STARLINK-1187 3.0 18:53:34 10° WNW 18:56:44 70° NNE 18:58:50 19° ESE
SJ-6B 3.0 18:52:49 10° S 18:56:57 80° WSW 19:01:07 10° NNW
Cosmos 1953 Rocket 3.6 18:52:35 10° N 18:57:06 85° E 19:01:36 10° S
STARLINK-1240 4.1 18:53:27 10° WNW 18:57:32 55° N 19:00:57 14° E
STARLINK-1199 3.0 18:54:26 10° WNW 18:57:34 66° NNE 18:59:39 19° E
STARLINK-29 4.2 18:55:19 10° SSW 18:57:52 22° SE 18:58:47 20° ESE
STARLINK-1191 3.0 18:54:54 10° WNW 18:58:02 66° NNE 19:00:06 19° E
STARLINK-1210 3.0 18:55:21 10° WNW 18:58:29 67° NNE 19:00:31 20° E
Cosmos 2074 Rocket 4.3 18:52:16 10° NNW 18:58:33 73° W 19:04:49 10° S
STARLINK-1221 3.0 18:55:48 10° WNW 18:58:57 67° NNE 19:00:58 20° E
STARLINK-1219 3.0 18:56:14 10° WNW 18:59:23 68° NNE 19:01:23 20° E
Cosmos 1606 Rocket 3.6 18:55:07 10° S 18:59:34 87° E 19:04:04 10° N
STARLINK-60 3.3 18:56:35 10° SW 18:59:44 44° SSE 19:02:13 15° ENE
STARLINK-1222 3.0 18:56:42 10° WNW 18:59:50 68° NNE 19:01:49 20° E
ATLAS 5 CENTAUR R/B 2.0 18:56:13 10° S 19:00:03 37° ESE 19:04:19 10° NE
STARLINK-1211 3.0 18:57:09 10° WNW 19:00:18 68° NNE 19:02:15 21° E
STARLINK-1214 3.0 18:57:36 10° WNW 19:00:44 69° NNE 19:02:41 21° E
STARLINK-1245 3.0 18:58:06 10° WNW 19:01:13 69° NNE 19:03:07 21° E
STARLINK-1238 3.0 18:58:30 10° WNW 19:01:39 69° NNE 19:03:34 21° E
STARLINK-1216 4.1 18:58:27 10° WNW 19:02:33 56° NNE 19:05:45 16° E
STARLINK-1205 3.0 18:59:27 10° WNW 19:02:34 70° NNE 19:04:25 22° E
STARLINK-1204 2.9 18:59:53 10° WNW 19:03:01 70° NNE 19:04:50 22° E
Meteor 1-16 Rocket 4.3 18:58:44 10° SSW 19:04:10 80° WNW 19:09:48 10° N
Cosmos 1818 3.7 18:59:40 10° SW 19:05:07 83° NW 19:10:37 10° NE
Terra 4.0 19:04:16 10° ENE 19:05:30 11° NE 19:06:44 10° NE
STARLINK-1237 4.0 19:03:25 10° WNW 19:07:32 57° NNE 19:10:31 18° E
Abrixas rocket 2.0 19:07:18 10° W 19:10:13 61° SSW 19:11:30 29° ESE
STARLINK-1202 4.0 19:08:25 10° WNW 19:12:31 59° NNE 19:15:18 19° E
Cosmos 2058 4.2 19:10:02 10° NNE 19:13:22 23° ENE 19:14:34 20° E
NOSS 3-4 (A) 4.0 19:06:46 10° NW 19:13:42 72° SW 19:20:34 13° SSE
NOSS 3-4 (C) 4.0 19:06:52 10° NW 19:13:48 72° SW 19:20:39 13° SSE
RESURS DK-1 4.4 19:12:49 10° N 19:15:29 16° NE 19:17:24 12° ENE
Cosmos 1300 3.2 19:17:23 22° SSE 19:19:20 38° E 19:22:54 10° NNE
FALCON 9 DEB 3.9 19:16:37 10° SSW 19:19:45 32° SE 19:20:16 30° SE
SL-4 R/B 1.4 19:17:03 10° WSW 19:20:27 83° SSE 19:22:39 21° ENE
Cosmos 2369 Rocket 4.4 19:16:32 10° NW 19:20:50 22° WSW 19:25:06 10° SSW
MOS 1 Rocket 3.6 19:16:49 10° NNE 19:22:10 63° E 19:27:34 10° S
STARLINK-1246 3.9 19:18:24 10° WNW 19:22:32 63° NNE 19:24:53 24° E
STARLINK-1203 3.8 19:19:02 10° WNW 19:23:13 66° NNE 19:25:34 25° E
Cosmos 1340 Rocket 2.7 19:19:54 10° S 19:23:57 81° E 19:28:00 10° NNE
STARLINK-1201 2.9 19:21:00 10° WNW 19:24:17 88° NNE 19:25:27 37° ESE
CZ-2C R/B 3.7 19:19:50 10° NNE 19:24:35 89° WNW 19:29:13 10° SSW
H-2A R/B 3.6 19:21:45 10° SSW 19:26:29 35° W 19:31:09 10° NNW
STARLINK-67 3.3 19:24:23 10° WNW 19:26:48 36° SSW 19:27:10 34° S
STARLINK-1224 3.8 19:23:22 10° WNW 19:27:30 65° NNE 19:29:39 27° E
Cosmos 1763 Rocket 4.4 19:23:36 10° N 19:28:17 32° NE 19:30:28 23° E
CZ-2C R/B 4.4 19:24:50 10° SSW 19:29:16 35° W 19:33:37 10° NNW
STARLINK-1225 3.8 19:28:22 10° WNW 19:32:31 68° NNE 19:34:27 30° E
MetOp-B 4.2 19:33:00 24° SE 19:36:10 62° ENE 19:41:28 10° N
SAR-Lupe-2 3.9 19:33:07 10° NNE 19:36:32 40° E 19:36:47 40° ESE
STARLINK-1230 3.7 19:33:21 10° WNW 19:37:30 70° NNE 19:39:14 33° E
Cosmos 1908 4.4 19:33:59 10° SSW 19:37:41 43° WNW 19:41:26 10° N
STARLINK-52 3.8 19:35:15 10° SW 19:37:28 33° S 19:37:28 33° S
Cosmos 1174 4.5 19:34:31 10° NNW 19:38:23 47° NE 19:40:09 31° ESE
Resurs 1-3 4.2 19:37:16 12° S 19:41:11 56° W 19:45:31 10° NNW
USA 234 3.6 19:35:10 10° ENE 19:41:14 39° SE 19:47:15 10° SSW
STARLINK-1243 3.7 19:38:19 10° WNW 19:42:29 73° NNE 19:44:00 37° E
Iridium 4 Rocket 3.4 19:40:23 10° N 19:44:22 39° E 19:44:57 37° ESE
ATLAS 2AS CENTAUR R/B 3.6 19:38:39 10° NW 19:45:47 46° WSW 19:51:22 15° S
STARLINK-1228 3.4 19:44:18 10° WNW 19:47:05 41° SW 19:47:05 41° SW
STARLINK-1236 3.6 19:43:18 10° WNW 19:47:28 76° NNE 19:48:47 42° E
CZ-4C R/B 3.8 19:45:38 10° NW 19:51:43 36° NNE 19:56:48 17° E
Cosmos 1140 Rocket 3.6 19:47:35 10° SSW 19:52:46 76° WNW 19:57:58 10° NNE
Cosmos 2341 Rocket 4.2 19:48:17 10° NNW 19:54:40 76° W 19:59:56 16° S
STARLINK-1269 3.5 19:53:15 10° WNW 19:57:26 83° NNE 19:58:20 53° ESE
Spot 2 Rocket 3.4 19:56:54 35° SSE 19:59:08 81° ENE 20:04:17 10° NNW
Cosmos 1850 Rocket 4.5 19:59:22 37° E 19:59:22 37° E 20:04:03 10° NE
Cosmos 2058 Rocket 4.2 19:55:17 10° SSW 19:59:38 46° WNW 20:04:00 10° N
Landsat 7 3.9 19:58:57 43° SE 20:00:19 63° ENE 20:05:02 10° N
CZ-2C R/B 2.8 19:55:21 10° N 20:00:31 71° WNW 20:05:41 10° SSW
COSMOS 2455 3.3 19:56:02 10° NW 20:01:57 57° WSW 20:05:12 27° S
Cosmos 1697 Rocket 3.6 19:57:02 10° NNW 20:02:14 35° NE 20:04:03 28° E
STARLINK-1200 3.5 19:58:14 10° WNW 20:02:24 87° NNE 20:03:07 60° ESE
Cosmos 1408 3.8 19:59:38 10° N 20:02:18 29° NE 20:02:18 29° NE
Cosmos 841 Rocket 4.3 20:00:43 10° N 20:05:38 37° ENE 20:06:47 33° E
CARTOSAT-1 4.1 20:06:16 40° ENE 20:06:29 40° ENE 20:10:33 10° N
STARLINK-1192 3.5 20:03:13 10° WNW 20:07:24 89° SSW 20:07:54 68° ESE
IGS 5A 3.4 20:06:53 60° ESE 20:07:24 68° ENE 20:11:33 10° N
Iridium 2 3.6 20:07:49 59° SSW 20:08:29 86° W 20:12:20 10° N
Cosmos 2218 Rocket 3.9 20:02:48 10° N 20:09:04 88° ENE 20:12:18 31° S
Resurs 01 Rocket 2.7 20:08:30 19° SSW 20:11:14 40° W 20:15:25 10° NNW
STARLINK-1244 3.4 20:08:11 10° WNW 20:12:22 85° SSW 20:12:41 75° SE
ERBS 2.5 20:09:21 10° NW 20:12:22 68° NW 20:12:22 68° NW
Okean 3 Rocket 4.3 20:08:41 10° N 20:12:40 37° ENE 20:12:40 37° ENE
BREEZE-M DEB (TANK) 3.1 20:13:16 10° W 20:15:11 31° W 20:15:11 31° W
ATLAS CENTAUR R/B 2.6 20:13:06 10° NNW 20:16:29 26° NE 20:16:45 26° NE
Cosmos 468 Rocket 3.8 20:11:34 10° NNW 20:16:47 85° ENE 20:18:01 53° SSE
STARLINK-1138 3.4 20:13:11 10° WNW 20:17:20 81° SSW 20:17:28 79° S
Cosmos 1766 Rocket 4.4 20:13:58 10° N 20:17:48 35° ENE 20:17:48 35° ENE
SL-16 R/B 4.4 20:16:14 10° N 20:19:17 14° NNE 20:22:21 10° ENE
Cosmos 1570 Rocket 4.2 20:15:42 10° NNW 20:21:01 56° ENE 20:21:55 49° E
Meteor 2-12 Rocket 4.3 20:15:13 10° N 20:21:22 84° ENE 20:23:32 43° SSE
STARLINK-1143 3.5 20:18:09 10° WNW 20:22:14 76° SW 20:22:14 76° SW
SL-8 Rocket 4.4 20:19:10 10° NNW 20:25:23 62° W 20:29:12 24° SSW
Cosmos 2181 Rocket 4.1 20:20:34 13° SSW 20:26:09 73° W 20:32:21 10° N
STARLINK-1241 3.7 20:23:10 10° WNW 20:27:03 69° WSW 20:27:03 69° WSW
Cosmos 2322 Rocket 4.5 20:24:48 10° N 20:27:45 14° NNE 20:30:41 10° ENE
ERS-1 Rocket 2.9 20:27:20 62° SE 20:28:06 76° ENE 20:33:09 10° NNW
Cosmos 1455 3.6 20:30:11 28° NE 20:30:11 28° NE 20:32:15 10° NNE
Cosmos 1656 3.6 20:24:04 10° NNW 20:29:48 80° ENE 20:30:57 58° SE
Cosmos 1812 Rocket 3.7 20:29:46 53° SW 20:30:39 71° WNW 20:34:59 10° N
Cosmos 1980 Rocket 3.2 20:26:22 10° NNW 20:31:26 33° NE 20:32:34 30° ENE
Cosmos 1892 2.9 20:28:15 10° NNW 20:32:00 67° W 20:32:00 67° W
STARLINK-1239 3.9 20:28:07 10° WNW 20:31:48 61° WSW 20:31:48 61° WSW
SPOT 5 2.6 20:34:13 68° NE 20:34:13 68° NE 20:38:21 10° N
STARLINK-1240 4.1 20:33:07 10° WNW 20:36:36 55° WSW 20:36:36 55° WSW
Cosmos 2366 rocket 4.3 20:32:13 10° NNW 20:38:16 61° W 20:41:06 32° SSW
STARLINK-1216 4.3 20:38:07 10° WNW 20:41:24 48° W 20:41:24 48° W
Cosmos 1825 3.2 20:38:28 10° N 20:41:04 39° NNE 20:41:04 39° NNE
Terra 1.9 20:42:27 63° ENE 20:42:27 63° ENE 20:47:03 10° N
ATLAS 5 CENTAUR R/B 3.0 20:40:35 10° WSW 20:44:38 39° NW 20:49:17 10° NE
Cosmos 2058 4.1 20:46:36 10° NNW 20:50:23 36° W 20:50:47 35° WSW
Cosmos 2151 3.3 20:46:16 10° N 20:49:51 63° NNW 20:49:51 63° NNW
Nadezhda 3 Rocket 3.9 20:50:21 61° SE 20:51:01 65° E 20:57:14 10° NNE
Cosmos 2360 4.4 20:46:45 10° NNW 20:52:22 55° NE 20:52:50 53° ENE
SPOT 1/Viking Rocket 4.0 20:52:37 46° SW 20:53:40 54° W 20:58:49 10° NNW
RESURS DK-1 2.9 20:49:57 10° NNW 20:53:17 56° NNW 20:53:17 56° NNW
Cosmos 1741 Rocket 4.0 20:54:59 63° SW 20:55:51 82° WNW 21:01:14 10° NNE
Cosmos 2278 3.9 20:53:05 10° NNW 20:58:42 57° ENE 20:58:59 57° ENE
Cosmos 1408 Rocket 4.4 20:55:05 10° N 20:58:24 43° NNE 20:58:24 43° NNE
SL-4 R/B 3.7 20:56:46 10° W 20:58:16 24° WNW 20:58:16 24° WNW
Cosmos 2208 Rocket 3.9 20:55:36 10° NNW 21:00:47 86° W 21:00:47 86° W
Cosmos 2082 Rocket 3.7 21:03:59 23° ENE 21:03:59 23° ENE 21:06:24 10° NE
Cosmos 1763 Rocket 4.2 21:05:20 10° NW 21:10:13 43° WSW 21:10:29 42° WSW
Cosmos 1833 Rocket 3.3 21:13:44 45° NE 21:13:44 45° NE 21:17:46 10° NE
Cosmos 2239 Rocket 4.3 21:09:19 10° N 21:15:36 85° W 21:16:11 75° S
BREEZE M DEB (TANK) 3.9 21:13:51 10° WSW 21:18:25 84° SSE 21:35:33 10° E
Cosmos 1821 Rocket 4.1 21:13:20 10° NNW 21:19:42 72° W 21:20:35 63° SW
Cosmos 1814 Rocket 4.2 21:14:24 10° NNW 21:19:27 70° W 21:19:27 70° W
Cosmos 540 Rocket 3.7 21:14:39 10° NNW 21:19:20 65° WNW 21:19:20 65° WNW
Cosmos-2242 4.0 21:21:21 45° NW 21:21:21 45° NW 21:24:51 10° N
COSMOS 2406 3.3 21:21:00 67° WSW 21:21:36 74° WNW 21:27:22 10° NNE
Meteor 2-10 Rocket 3.9 21:23:20 60° W 21:23:37 61° WNW 21:29:01 10° N
Cosmos 1934 Rocket 3.8 21:18:15 10° N 21:24:33 81° E 21:24:38 81° E
USA 234 3.2 21:18:04 10° NE 21:24:38 82° NNW 21:31:11 10° WSW
Cosmos 1605 Rocket 4.0 21:32:48 10° N 21:38:36 68° NE 21:38:36 68° NE
Cosmos 2369 4.2 21:35:08 10° NW 21:40:06 53° W 21:40:06 53° W
CZ-4C R/B 2.8 21:34:03 10° NW 21:41:08 89° NE 21:42:00 74° SE
ASTEX 1 4.1 21:44:36 52° NW 21:44:36 52° NW 21:48:34 10° N
Cosmos 1697 Rocket 3.3 21:40:56 10° NW 21:45:47 47° W 21:45:47 47° W
Mayak 0.6 21:45:43 10° N 21:47:46 28° N 21:47:46 28° N
ALOS 2 4.4 21:55:17 27° NNE 21:55:17 27° NNE 21:57:36 10° N
ATLAS CENTAUR R/B 3.8 21:51:53 10° NW 21:52:56 17° NW 21:52:56 17° NW
SL-16 R/B 2.9 21:59:20 10° NNW 22:04:14 47° NNE 22:04:14 47° NNE
Cosmos 2360 Rocket 3.6 22:03:19 10° NNW 22:08:09 28° NE 22:08:30 28° NE
Cosmos 2322 Rocket 3.0 22:07:48 10° NNW 22:12:34 45° NNE 22:12:34 45° NNE
Cosmos 1980 Rocket 3.1 22:10:14 10° NW 22:14:19 42° WNW 22:14:19 42° WNW
Terra 4.0 22:21:20 18° WNW 22:21:20 18° WNW 22:23:48 10° NW
Cosmos 2333 Rocket 4.3 22:19:01 10° N 22:22:58 19° NE 22:25:05 16° ENE
ATLAS 5 CENTAUR R/B 4.5 22:27:24 10° NW 22:30:41 18° N 22:34:17 10° NE
Cosmos 1607 4.4 22:38:22 54° NNE 22:38:22 54° NNE 22:43:08 10° NE
Cosmos 2082 Rocket 3.0 22:45:47 46° NW 22:45:47 46° NW 22:50:47 10° NNE
Cosmos 1459 Rocket 4.3 22:44:16 10° N 22:49:42 66° N 22:49:42 66° N
Cosmos 1833 Rocket 4.2 22:55:21 27° WNW 22:56:31 29° NW 23:01:26 10° NNE
Cosmos 1727 Rocket 4.4 22:58:38 57° NW 22:58:38 57° NW 23:04:14 10° N
Cosmos 2219 Rocket 3.7 23:01:48 10° NNW 23:06:39 29° NE 23:07:19 28° ENE
USA 234 4.0 23:01:05 10° ENE 23:07:18 49° N 23:13:32 10° W
Cosmos 1725 Rocket 4.3 23:01:11 10° N 23:06:34 61° NNE 23:06:34 61° NNE
Cosmos 2016 Rocket 4.3 23:01:26 10° N 23:06:48 65° N 23:06:48 65° N
Cosmos 1802 Rocket 4.3 23:02:57 10° N 23:07:59 60° NNW 23:07:59 60° NNW
Cosmos 2123 Rocket 4.4 23:19:41 57° NE 23:19:41 57° NE 23:24:41 10° NNE
Cosmos 2322 4.5 23:20:50 10° NNW 23:25:36 49° NNE 23:25:36 49° NNE
COSMOS 2428 3.9 23:22:29 10° NNW 23:27:45 37° NE 23:28:05 36° ENE
CZ-4C R/B 4.3 23:23:15 10° WNW 23:27:10 24° W 23:27:10 24° W
SJ 16-02 4.1 23:37:59 13° ENE 23:37:59 13° ENE 23:38:42 10° NE
Resurs 1-4 Rocket 4.2 23:35:03 10° NE 23:37:53 18° ENE 23:37:53 18° ENE
MOS 1-B Rocket 4.5 23:40:43 10° N 23:46:30 59° WNW 23:46:30 59° WNW
SL-16 R/B 4.0 23:43:48 10° NW 23:46:05 22° WNW 23:46:05 22° WNW
Cosmos 2360 Rocket 3.4 23:47:01 10° NNW 23:50:15 35° NW 23:50:15 35° NW
